Location: Mapua
(41.2500°S, 173.1000°E)
Time: 18:17:35
(UTC+13:00)

Envisat - Visible Passes

Search period start: 18 December 2017 00:00
Search period end: 28 December 2017 00:00
Orbit: 764 x 766 km, 98.2° (Epoch: 17 December)

Date Brightness Start Highest point End Pass type
(mag) Time Alt. Az. Time Alt. Az. Time Alt. Az.
18 Dec 3.2 21:39:15 10° SSE 21:44:19 56° E 21:49:20 10° N visible
18 Dec 5.6 23:19:20 10° SSW 23:22:52 19° WSW 23:26:23 10° WNW visible
19 Dec 4.4 22:41:44 10° S 22:46:30 39° WSW 22:51:13 10° NW visible
20 Dec 3.1 22:04:45 10° SSE 22:09:56 84° WSW 22:15:03 10° NNW visible
20 Dec 6.0 23:46:37 10° SW 23:48:06 11° WSW 23:49:34 10° WSW visible
21 Dec 3.4 21:28:14 10° SSE 21:33:10 44° E 21:38:01 10° N visible
21 Dec 5.3 23:07:52 10° SSW 23:11:52 23° WSW 23:15:51 10° WNW visible
22 Dec 4.0 22:30:29 10° S 22:35:27 48° WSW 22:40:21 10° NW visible
23 Dec 3.0 21:53:38 10° SSE 21:58:48 78° ENE 22:03:55 10° N visible
23 Dec 5.8 23:34:33 10° SSW 23:37:09 14° WSW 23:39:44 10° W visible
24 Dec 5.0 22:56:29 10° S 23:00:52 29° WSW 23:05:12 10° NW visible
25 Dec 3.6 22:19:17 10° S 22:24:22 61° WSW 22:29:24 10° NNW visible
26 Dec 3.1 21:42:34 10° SSE 21:47:41 61° E 21:52:43 10° N visible
26 Dec 5.7 23:22:52 10° SSW 23:26:10 17° WSW 23:29:27 10° WNW visible
27 Dec 4.6 22:45:10 10° S 22:49:49 35° WSW 22:54:26 10° NW visible
